Theta_e
309 309 309 309 309 309 309 309 309 309 309 309 309 309 308 308 308 308 308 308 308 308 308 308 308 309 309 309 309 310 310 312 313 313 314 315 314 313 313 314 314 313 313 315 313 312 312 312 313 313 315 316 314 314 313 318 321 320 328 325 322 326 324 326 325 321 319 321 323 319 314 315 316 315 311 310 312 314 315 315 314 312 311 312 311 309 308 309
310 310 310 310 310 310 310 310 310 310 309 309 309 309 309 309 309 309 309 309 309 308 308 308 309 309 309 309 310 310 312 313 314 313 314 315 315 316 315 314 314 314 313 314 313 312 313 314 312 313 318 316 314 315 316 317 319 326 327 320 324 329 324 322 323 321 317 317 321 320 315 313 315 314 311 313 317 317 315 315 315 314 314 311 308 307 308 309
310 310 310 310 310 310 310 310 310 310 310 310 310 310 310 310 310 310 309 309 309 309 309 309 309 309 309 309 310 311 312 312 313 314 315 315 315 316 317 316 314 314 314 314 314 311 313 314 311 315 319 316 316 317 319 318 318 326 323 321 328 327 321 319 320 319 317 316 318 319 315 313 314 312 311 313 316 317 315 315 315 316 316 314 312 308 306 308
311 311 311 311 311 311 311 311 311 311 311 310 310 310 310 310 310 310 310 310 310 310 309 309 310 309 309 309 310 311 312 312 313 315 315 315 315 315 316 316 314 314 314 314 313 311 312 312 311 318 319 316 319 318 321 321 319 321 319 324 329 321 318 321 321 319 316 313 313 317 316 314 313 310 312 314 314 316 315 315 315 315 315 316 316 310 304 305
311 311 311 311 311 311 311 311 311 311 311 311 311 310 310 310 310 311 311 310 311 311 310 311 310 310 310 309 310 312 313 315 315 315 315 316 315 315 316 316 315 315 315 313 313 312 311 311 312 319 319 317 319 318 322 323 318 319 318 323 326 318 316 320 322 319 316 313 314 316 316 315 312 310 313 313 314 316 316 316 315 314 315 314 313 311 305 305
312 312 312 312 312 312 312 312 312 311 311 311 311 311 311 311 310 310 310 311 311 311 311 311 311 311 310 309 312 313 313 314 314 314 316 315 314 315 316 316 315 315 315 314 312 311 313 313 313 319 319 317 318 317 319 319 315 318 321 321 322 319 317 320 321 320 317 315 316 317 315 313 312 313 314 313 314 315 315 316 315 314 312 309 309 312 315 315
313 313 313 313 313 313 312 312 312 312 312 312 312 311 311 311 311 311 311 311 310 311 311 311 311 311 310 311 314 315 315 315 314 314 315 315 315 315 316 316 316 315 315 313 311 314 317 315 315 318 319 317 317 318 318 316 315 317 321 321 321 318 317 318 317 319 319 317 317 315 314 314 314 314 313 311 313 313 313 313 313 311 306 306 309 313 318 317
314 314 314 314 314 313 313 313 313 312 312 312 312 312 312 312 312 312 312 311 311 311 310 310 311 310 311 313 314 316 316 316 314 314 314 314 314 315 316 316 316 315 314 312 312 315 316 316 315 315 317 317 316 317 315 314 316 318 319 321 321 318 320 319 316 317 318 316 313 312 315 315 314 313 312 311 312 312 313 312 311 310 308 308 310 311 311 312
315 315 315 314 314 314 313 313 313 313 313 313 313 313 313 312 312 313 313 313 312 312 311 311 311 310 312 313 313 315 315 315 314 314 313 314 314 315 316 316 316 315 313 313 312 312 314 317 317 314 316 318 314 314 315 313 316 319 319 320 321 318 319 317 315 316 317 316 312 311 315 314 312 312 312 312 312 311 311 311 310 310 311 310 309 308 307 309
315 315 315 314 314 314 314 314 314 313 313 313 313 312 312 311 311 312 312 313 313 314 313 312 311 311 312 312 312 314 314 313 314 314 314 315 316 316 316 316 316 315 313 312 311 311 313 316 314 312 314 315 312 312 314 313 314 318 318 319 319 316 314 314 315 315 313 314 312 312 314 313 311 311 312 314 315 313 311 313 312 311 312 311 309 308 306 306
315 315 315 315 315 315 314 314 314 313 313 312 312 312 311 310 309 310 311 312 313 314 313 313 312 311 310 311 314 314 312 313 315 315 316 316 315 315 316 316 315 314 313 310 310 312 312 312 309 308 312 313 312 312 313 312 312 314 314 315 316 313 312 312 313 312 310 311 311 311 311 312 311 311 312 312 315 314 313 314 314 314 313 311 309 308 306 305
316 315 315 315 315 315 314 314 313 313 312 312 312 311 310 309 309 309 309 310 311 312 312 313 313 311 310 311 313 312 311 312 313 314 315 315 315 315 315 315 314 314 313 310 310 312 311 310 309 311 313 311 311 311 311 311 310 311 312 312 314 313 312 311 312 312 310 310 312 310 310 313 313 313 314 310 312 313 313 314 313 313 311 310 309 308 307 305
316 316 316 316 315 315 314 314 313 313 313 313 312 310 309 309 308 308 309 309 309 309 310 312 312 311 310 312 313 311 311 311 312 313 313 314 314 313 313 313 313 312 312 311 310 311 310 310 310 313 311 310 313 310 309 312 310 311 311 312 312 312 313 312 312 312 309 311 313 311 311 317 317 316 315 310 311 312 313 314 313 311 310 309 310 309 308 306
316 316 316 316 317 316 316 315 314 313 314 314 312 310 309 309 308 308 308 309 309 308 309 311 311 310 310 313 312 310 311 311 310 311 311 312 312 312 312 312 311 311 311 310 309 310 310 309 309 310 308 310 313 308 310 316 316 313 310 312 313 312 316 316 312 310 309 311 312 310 311 315 314 315 313 311 311 312 312 313 311 310 309 309 309 309 309 308
317 317 317 317 318 318 318 316 315 315 315 314 312 311 310 309 309 310 311 311 309 309 310 311 311 310 311 315 312 311 312 311 311 311 311 312 311 311 310 311 310 310 310 309 310 311 308 308 310 311 310 310 310 311 315 319 324 320 311 315 317 313 317 317 312 311 310 310 308 309 314 313 310 313 312 311 310 310 310 311 311 311 309 309 309 309 309 309
318 318 318 319 319 318 319 317 316 316 316 314 313 311 310 310 312 312 313 311 310 311 311 312 312 309 314 317 313 312 312 311 313 312 312 311 311 311 310 310 310 309 310 309 311 310 308 310 311 311 312 310 312 317 319 318 324 323 312 314 318 314 314 313 314 314 311 311 309 309 313 313 312 314 313 312 310 309 309 310 309 309 309 308 308 308 309 309
319 319 320 320 320 320 319 318 318 317 317 315 312 310 310 312 312 312 312 311 312 312 311 312 311 309 314 315 312 314 312 310 312 312 312 311 311 311 310 309 308 308 309 309 310 310 308 310 310 312 315 313 314 317 318 317 319 318 313 314 317 315 313 312 314 315 310 311 312 310 310 310 311 312 312 311 311 310 309 309 308 308 308 308 308 308 308 308
319 319 320 321 321 321 320 319 318 318 318 315 312 311 312 313 312 312 313 312 311 311 310 312 310 311 317 314 313 314 311 310 311 311 312 312 311 310 310 309 306 307 309 310 310 310 310 312 313 317 318 314 313 315 316 317 315 315 316 315 315 314 312 312 313 313 311 310 310 311 310 309 309 309 309 308 309 309 308 309 308 308 308 308 308 308 308 308
319 318 318 318 319 320 319 319 319 318 318 317 313 311 313 315 314 312 312 312 314 313 313 314 313 316 319 315 311 310 310 311 312 311 310 311 310 309 310 308 308 310 312 313 312 310 313 315 316 317 316 313 312 312 314 315 313 314 314 314 314 312 312 311 310 310 311 309 309 310 309 308 309 308 308 308 308 308 308 308 308 308 308 308 308 308 308 308
319 318 317 317 318 319 319 319 319 319 318 317 315 312 314 317 319 319 314 313 316 314 315 318 317 318 317 314 311 310 312 311 311 312 310 309 309 309 309 307 311 313 313 318 316 310 312 315 315 316 315 314 313 312 312 312 312 311 312 313 313 312 311 310 309 309 309 308 309 310 309 309 309 309 309 308 308 308 308 308 309 309 309 309 309 309 309 309
319 318 318 318 318 318 319 319 319 320 318 317 315 312 312 312 316 320 316 315 313 309 314 316 312 314 314 312 311 310 313 312 311 311 309 309 309 311 312 310 313 314 314 319 316 309 310 314 315 315 314 313 312 312 310 311 312 312 313 312 312 311 310 310 310 309 308 308 310 311 310 309 309 309 309 309 309 309 309 309 309 309 309 310 310 310 310 309
321 320 319 318 318 318 319 320 320 319 319 318 314 310 308 307 309 310 310 315 314 306 309 312 309 311 311 310 310 310 313 315 314 312 309 309 309 313 314 312 315 316 314 315 313 312 312 313 313 312 311 312 313 313 311 311 312 312 312 311 311 311 310 310 310 310 309 309 312 312 310 308 309 309 309 309 309 309 310 310 310 310 310 310 310 310 310 311
323 322 321 319 319 319 320 320 319 319 320 317 313 310 308 308 308 306 307 315 317 312 312 312 310 311 310 310 310 311 313 314 314 313 310 309 310 313 313 312 315 316 315 314 314 315 316 317 314 310 309 310 312 313 312 311 311 312 312 311 312 311 311 312 313 315 312 309 311 311 309 309 310 309 309 309 309 309 310 309 309 310 310 310 310 310 310 311
324 323 323 321 320 320 320 320 318 319 319 314 312 311 309 308 307 307 310 314 318 317 313 310 310 312 312 310 309 311 313 313 314 313 310 311 313 312 313 314 315 315 314 313 314 315 316 317 313 311 310 310 312 311 312 312 311 312 312 311 312 312 312 311 313 314 312 312 314 311 312 314 313 311 312 313 312 310 309 310 312 311 309 309 310 310 309 310
324 324 324 322 321 320 320 320 318 319 319 314 313 312 310 309 307 307 311 317 321 320 312 307 309 312 311 308 309 312 313 314 315 312 308 310 313 312 312 312 314 316 314 312 313 313 313 313 312 313 312 310 311 311 313 315 312 312 314 313 312 312 312 312 313 312 312 317 316 312 314 317 316 315 317 320 319 317 315 317 317 314 310 311 312 312 311 312
324 324 324 323 322 320 320 320 318 319 319 314 313 315 312 309 308 307 310 319 327 324 315 310 310 311 308 308 309 311 315 314 309 307 307 308 310 311 313 311 311 315 315 313 313 312 312 311 310 313 315 313 311 311 314 314 311 313 317 317 314 312 313 313 312 312 315 318 314 313 317 317 316 317 320 322 322 320 319 318 315 312 312 313 313 312 312 313
324 324 324 323 322 321 321 321 319 320 321 317 316 316 312 309 307 306 312 324 329 322 315 311 308 309 308 307 307 310 316 314 307 306 308 308 308 309 312 313 310 311 311 313 315 314 313 311 310 312 314 315 313 313 315 312 312 315 316 318 318 315 314 313 312 312 316 316 312 314 316 315 316 315 317 318 317 318 317 315 312 311 312 314 314 311 312 313
323 323 324 323 322 322 321 321 320 320 321 319 317 317 314 310 307 309 320 331 329 318 314 311 307 308 308 305 306 310 310 309 308 308 305 305 308 309 312 315 315 314 311 313 316 314 312 314 314 313 313 315 315 315 316 313 314 316 313 314 316 315 315 314 313 315 315 314 315 314 313 316 318 315 315 315 315 320 318 315 314 314 314 315 317 316 314 313
321 321 323 323 322 321 320 321 321 320 321 319 318 319 316 310 307 314 326 329 325 317 313 310 307 308 310 308 309 311 308 307 309 308 305 306 308 308 311 314 315 315 312 312 315 313 312 313 315 317 316 316 317 318 318 314 314 314 311 314 316 316 316 314 315 318 318 318 317 315 314 317 319 317 317 315 316 322 322 319 318 317 316 316 320 320 318 316
318 319 320 321 321 321 320 320 321 321 321 320 320 318 313 313 314 322 329 325 322 319 312 310 310 309 311 312 312 311 309 310 310 309 310 308 308 308 308 308 312 316 313 311 313 312 311 309 310 315 316 315 318 316 312 313 314 312 313 318 319 318 317 317 317 317 319 319 317 317 317 316 318 319 319 318 319 322 322 320 318 317 318 321 322 319 317 316
316 317 318 319 320 320 320 320 321 321 320 320 321 316 315 321 324 328 329 321 319 320 314 311 313 313 314 313 314 312 311 312 310 310 311 310 311 312 309 308 313 319 318 314 314 312 310 309 311 316 315 314 315 312 308 309 311 314 317 319 318 318 319 320 319 317 318 320 318 317 315 314 318 317 317 320 320 318 317 315 315 315 317 320 320 315 312 312
314 315 316 317 318 319 320 320 320 321 321 319 318 318 322 326 325 327 328 322 323 323 316 313 314 315 316 313 316 315 311 313 311 310 314 313 313 313 314 317 316 318 321 320 318 317 315 312 312 312 312 311 312 314 312 309 309 313 317 316 314 318 318 318 320 318 318 320 316 314 313 314 316 314 315 318 316 314 313 313 315 314 315 320 319 314 312 310
311 312 313 314 316 318 319 320 320 320 320 318 318 322 325 325 325 328 328 326 326 320 314 314 314 314 314 314 318 317 311 313 312 310 313 313 313 315 317 317 315 315 318 318 318 320 320 316 310 309 311 312 313 313 315 315 312 310 313 315 316 318 319 319 321 318 317 318 314 310 314 316 316 317 317 315 313 313 314 316 317 314 315 318 315 312 312 309
309 310 311 312 313 316 318 318 319 320 318 317 320 324 324 325 326 326 328 329 326 321 315 315 315 315 315 314 318 317 313 316 314 310 312 312 313 320 320 314 311 313 313 313 316 318 319 321 317 313 314 313 310 311 317 320 315 310 313 316 316 319 322 321 322 321 320 318 311 308 315 319 319 319 317 315 315 316 316 316 314 312 313 313 313 313 312 310
307 308 309 310 311 314 317 318 318 319 318 317 320 324 325 327 325 324 329 329 326 324 317 313 315 318 320 319 318 315 314 318 315 311 313 315 317 324 327 321 314 313 314 316 319 317 316 321 319 312 311 311 310 313 316 317 315 312 314 315 316 319 320 318 321 322 318 316 313 312 316 318 317 315 312 314 315 312 313 313 312 314 314 314 317 315 311 312
305 306 306 308 309 311 315 318 318 317 317 318 321 324 325 324 324 326 326 321 320 321 319 317 319 320 324 324 320 315 312 314 316 314 315 317 318 320 323 325 319 312 313 318 321 319 317 321 318 310 309 311 311 312 311 312 316 314 312 316 318 317 315 315 319 319 315 315 317 318 318 316 316 317 317 319 316 311 313 314 314 315 314 315 317 314 312 313
302 303 305 307 309 311 313 316 317 316 316 319 322 324 323 322 324 327 324 316 315 319 320 321 321 322 325 325 323 318 314 314 316 316 319 318 318 318 320 321 316 311 312 315 319 320 317 319 318 312 311 311 307 309 311 312 313 315 316 317 315 312 312 315 318 319 318 317 317 317 317 316 317 319 320 320 317 314 314 315 316 317 316 316 315 311 310 307
301 303 305 307 308 309 311 315 316 315 316 320 323 324 323 322 322 323 320 316 316 318 320 321 322 324 325 324 325 320 315 317 317 316 320 320 317 318 320 318 312 310 310 310 313 318 316 315 316 313 313 313 309 311 316 312 308 311 315 314 313 314 315 316 319 319 319 319 320 319 318 318 317 317 317 315 314 314 313 313 315 314 312 310 307 304 302 299
301 304 308 309 308 308 310 314 315 314 317 320 322 323 322 321 321 321 319 317 318 320 322 323 324 324 325 325 325 322 318 320 320 317 320 322 318 317 318 318 314 312 313 311 311 317 318 317 317 315 314 315 314 316 321 318 312 310 310 311 313 314 314 316 319 320 320 320 320 320 319 319 318 316 315 315 314 315 314 313 310 306 303 301 299 298 297 295
301 307 311 310 310 310 311 314 315 316 319 320 320 321 320 319 321 322 319 316 318 320 321 324 324 322 324 324 325 324 321 321 322 321 322 324 322 321 320 321 320 317 315 314 314 318 319 318 318 317 315 316 317 318 320 320 317 314 312 314 314 313 315 316 317 318 319 318 319 320 319 319 321 319 315 316 316 314 311 307 303 300 298 297 296 295 294 294
302 308 311 309 310 312 313 315 316 317 319 320 319 319 318 318 318 320 318 315 316 317 317 320 323 322 321 321 322 322 321 322 323 323 323 323 322 323 321 321 323 321 316 314 316 319 319 317 319 319 317 317 317 317 317 316 316 315 315 316 316 315 317 316 316 317 317 317 318 318 318 320 324 323 317 316 315 308 303 301 299 297 296 295 295 294 293 293
303 310 310 308 311 313 314 316 317 316 317 319 318 317 317 317 317 318 317 315 315 316 315 317 320 320 319 319 320 321 321 322 322 321 321 321 320 320 319 318 320 321 318 317 318 319 317 317 319 318 316 316 316 315 315 315 314 314 314 314 315 315 315 315 317 317 316 317 316 317 319 319 319 319 316 313 308 301 298 298 297 296 295 294 294 293 292 292
304 307 307 308 311 313 314 317 317 316 317 317 316 317 317 317 317 317 316 315 315 316 317 317 317 317 319 318 318 319 319 319 319 320 320 321 319 314 312 315 317 317 316 318 318 316 313 315 317 316 316 315 316 316 314 313 314 315 314 314 313 314 314 315 315 314 315 316 316 318 319 317 319 323 315 306 302 299 297 296 295 294 294 293 293 293 292 292
300 301 303 305 307 309 313 316 316 317 317 315 316 316 316 316 316 316 315 316 317 316 316 317 316 315 317 317 317 318 318 317 317 317 318 319 316 309 307 313 316 314 313 314 314 313 313 315 316 316 315 314 315 314 311 312 314 316 317 316 313 313 314 314 313 313 314 315 315 318 317 316 322 326 315 304 302 299 296 294 294 293 293 292 292 292 292 292
299 301 302 301 301 305 310 312 313 315 316 315 316 316 315 315 316 316 315 314 315 316 316 316 314 313 313 314 314 314 315 315 316 316 316 316 313 307 306 310 312 311 310 307 307 310 312 314 314 314 315 315 313 312 311 313 313 313 315 315 313 312 313 313 313 314 315 315 315 316 316 314 315 317 313 307 302 299 296 294 293 293 293 293 292 292 292 292
301 303 304 304 305 306 307 307 309 312 314 315 315 315 315 315 314 315 316 315 314 314 314 314 313 311 311 312 313 313 313 314 314 313 313 315 314 308 305 306 307 308 308 306 305 308 311 312 313 313 314 314 313 312 312 312 311 311 312 312 311 311 310 310 312 313 313 314 314 314 314 314 313 314 314 308 301 298 296 293 292 292 292 292 292 292 292 291
300 303 304 305 307 307 306 306 306 308 310 311 312 313 314 314 313 313 314 314 314 312 313 313 312 312 313 313 313 313 313 313 312 312 312 313 313 308 304 304 305 304 305 304 305 308 310 310 312 312 311 312 312 311 310 308 308 309 309 309 309 309 308 309 310 310 311 312 312 312 312 312 312 312 312 304 297 296 295 292 292 292 291 291 291 291 292 291
298 301 301 301 304 304 304 304 303 304 305 307 308 310 312 312 312 312 311 311 311 311 312 312 311 312 313 311 311 312 312 311 310 310 310 309 309 309 306 305 303 301 301 302 304 308 309 307 309 309 309 309 308 307 306 305 306 306 307 307 307 307 307 308 307 308 309 309 309 309 308 309 309 306 302 297 294 294 293 292 292 291 291 292 291 291 292 292
296 298 298 298 299 299 299 300 299 300 303 305 306 308 309 310 310 310 309 309 308 309 311 311 310 310 310 309 309 311 310 309 308 308 306 304 305 307 307 306 302 299 299 299 302 307 306 305 307 306 305 305 305 304 304 304 304 304 305 305 305 306 307 306 306 306 306 307 307 306 307 307 304 299 296 294 293 293 293 292 292 292 292 292 292 291 292 292
296 297 297 296 296 295 295 297 299 300 301 302 304 305 306 307 307 307 307 307 307 308 309 310 308 306 306 306 308 308 307 306 306 306 302 302 304 304 302 303 302 299 298 299 301 304 305 304 305 303 302 303 302 303 303 303 303 303 303 304 304 304 304 304 304 304 304 305 305 305 306 305 299 294 294 294 292 293 293 293 292 292 292 292 291 291 291 292
295 295 295 295 295 295 295 297 298 299 300 301 302 303 304 304 303 303 305 304 303 304 304 303 302 302 302 303 304 304 303 301 301 301 299 299 302 301 299 300 299 298 299 300 301 302 302 302 302 301 301 301 301 302 302 301 301 301 300 301 301 301 301 301 301 301 302 303 303 304 305 303 297 293 293 293 293 293 293 293 293 293 292 292 291 291 291 292
293 294 294 295 295 295 295 296 297 299 299 299 300 301 302 300 298 300 303 301 298 298 297 297 298 299 300 301 301 299 297 297 298 299 298 298 298 297 297 298 297 297 298 298 299 300 300 300 300 299 299 300 300 300 299 299 299 297 297 298 298 299 299 299 300 302 303 303 304 305 302 297 294 294 294 294 293 293 293 293 293 293 292 292 292 291 292 292
Wind_Speed
6 6 6 6 6 6 6 6 6 6 6 6 6 7 7 8 8 8 9 9 9 9 9 10 10 11 11 11 10 8 9 9 7 7 7 6 5 6 8 6 3 10 13 9 8 10 7 5 5 5 5 4 3 2 2 3 2 2 3 2 2 3 4 6 8 7 4 3 5 3 2 2 6 3 1 0 1 3 5 6 5 5 8 11 10 7 5 5
6 6 6 6 6 6 6 6 6 6 6 6 6 6 6 7 7 8 8 9 9 9 9 9 9 10 10 10 9 9 11 10 7 8 7 3 3 4 6 7 5 8 12 10 10 11 7 3 5 6 4 2 2 2 2 1 2 2 3 2 4 6 5 6 7 6 5 4 4 4 3 4 6 2 0 2 5 4 7 9 3 5 13 13 13 12 10 9
7 7 7 6 6 7 7 7 7 6 6 6 6 6 6 6 7 7 8 8 9 9 9 9 9 9 9 9 8 9 11 8 5 5 5 2 3 4 3 7 6 8 11 9 8 9 5 6 9 6 4 1 1 2 2 0 1 2 3 2 6 6 5 5 6 8 8 4 3 6 2 3 5 3 1 3 5 5 8 11 5 7 13 11 10 11 12 13
7 7 7 7 7 7 7 7 7 7 7 7 7 7 7 7 7 8 8 8 9 9 9 9 9 9 9 9 8 9 9 6 3 5 7 2 4 4 1 6 8 9 11 7 6 7 4 8 9 5 3 1 3 2 0 2 1 1 4 5 6 4 3 7 8 9 7 3 3 5 3 5 5 3 3 4 3 7 10 12 11 13 13 12 8 8 12 13
8 8 8 8 8 8 8 8 8 9 9 9 9 9 9 10 9 9 9 9 9 9 10 9 9 9 9 9 7 7 8 6 3 6 5 2 5 3 1 6 9 9 11 8 7 8 6 8 6 5 3 1 2 2 2 3 3 2 4 7 6 4 3 7 7 7 5 3 3 3 5 6 1 1 5 7 5 9 10 9 11 14 12 11 9 6 9 10
8 9 9 9 9 9 9 9 9 10 10 10 11 11 11 11 11 11 11 11 11 10 11 10 10 9 9 8 5 3 3 1 5 5 5 7 7 4 2 7 9 10 11 9 9 9 7 6 4 3 2 1 2 3 4 3 2 3 5 6 7 6 6 5 3 5 5 4 4 4 5 4 2 5 5 10 11 14 14 11 10 12 10 9 7 5 7 10
8 9 9 9 9 9 9 9 10 10 11 11 12 12 12 12 12 13 12 13 12 12 12 11 12 11 9 7 3 2 3 5 13 11 11 11 9 5 4 8 10 12 13 12 11 8 5 6 3 4 4 1 3 5 4 1 1 3 5 5 6 5 8 7 2 3 4 6 8 2 6 8 8 7 2 9 13 17 19 15 11 11 9 7 7 7 9 11
7 8 8 8 9 9 9 10 10 11 12 12 13 13 13 14 13 14 14 14 14 13 14 13 12 11 9 5 1 2 1 9 18 16 14 12 10 7 7 9 11 14 14 14 12 9 6 6 5 4 2 3 4 4 3 1 0 5 7 5 3 3 7 8 4 4 6 8 6 1 7 16 12 4 8 12 13 17 20 16 10 9 9 7 10 11 11 11
8 8 8 9 9 9 10 11 11 12 13 13 14 14 15 15 15 15 14 15 15 14 14 13 13 11 9 3 2 2 5 10 11 9 10 9 9 9 9 10 13 15 14 12 12 12 7 6 6 5 4 4 5 4 4 3 4 7 8 5 4 5 7 6 6 7 7 6 3 2 10 17 9 2 12 15 14 18 17 14 10 7 10 10 11 13 11 11
8 9 9 9 9 10 11 12 13 13 14 14 15 15 16 16 16 16 16 16 15 15 14 14 12 10 6 1 2 4 7 7 6 7 7 8 10 10 11 11 14 17 14 11 12 14 8 8 8 6 5 3 5 4 4 5 4 4 4 6 7 8 8 4 6 8 5 5 6 7 12 15 6 2 10 12 7 9 9 11 10 5 10 11 10 11 9 9
8 9 9 10 10 11 12 13 14 14 15 15 16 16 16 16 16 17 17 17 17 15 14 13 11 8 5 2 3 7 6 5 7 8 8 10 11 10 12 12 14 17 14 10 14 17 11 10 11 7 2 3 4 3 3 5 2 2 1 6 9 7 9 5 6 9 4 4 7 11 9 11 4 2 15 16 2 2 6 10 11 8 10 10 9 9 6 8
8 9 10 10 11 12 13 14 15 15 16 16 17 17 16 17 17 18 18 18 18 16 14 13 9 6 3 2 7 13 11 9 9 9 10 11 10 10 11 11 12 14 14 10 13 19 12 11 14 6 3 4 3 1 4 3 3 1 3 5 9 7 10 8 6 6 5 4 5 9 3 8 6 10 20 14 1 2 5 9 12 11 11 9 8 8 6 9
8 9 9 10 11 12 13 14 15 16 17 17 17 17 17 18 18 19 18 18 18 15 13 11 8 5 2 2 7 12 16 15 13 13 13 13 11 9 9 10 11 12 13 10 9 13 14 13 13 6 3 5 2 2 2 3 3 2 2 1 7 6 9 7 2 1 4 5 6 7 3 6 9 16 19 7 2 4 5 9 12 11 10 8 7 7 8 9
7 8 9 11 12 12 13 14 15 16 17 17 17 17 18 18 18 18 17 17 15 13 11 7 5 4 3 6 7 7 11 14 15 16 17 16 11 7 6 8 10 11 11 9 5 7 13 13 9 3 1 3 2 1 2 5 3 2 1 1 2 2 7 7 0 3 1 3 5 5 4 8 10 15 18 5 3 3 6 10 11 10 9 7 7 6 8 9
8 9 10 11 12 13 14 15 16 17 17 18 17 17 18 17 17 15 14 13 10 7 6 3 5 5 1 7 9 6 9 10 12 16 17 16 12 6 6 8 10 10 9 8 5 5 11 11 6 3 2 1 0 1 3 4 3 1 2 4 2 3 6 11 6 6 6 4 4 5 4 8 10 13 16 7 4 2 7 10 10 11 11 9 8 7 9 11
9 11 11 12 13 14 15 15 17 17 18 18 17 17 16 14 12 12 10 7 3 3 3 4 7 6 1 5 5 5 7 7 10 12 12 15 13 8 8 10 8 8 7 6 7 8 10 8 2 2 1 1 2 2 3 4 4 2 2 5 4 5 4 7 9 6 7 4 2 6 5 6 8 9 12 9 6 5 7 11 12 13 12 11 10 9 10 11
11 12 13 14 14 14 15 16 16 17 18 18 18 17 12 9 8 8 5 3 5 7 6 4 6 4 2 5 4 5 4 6 8 7 8 11 12 12 11 8 6 9 9 6 8 7 5 3 1 0 1 1 2 4 3 2 5 3 2 4 4 6 4 4 8 6 3 6 4 5 7 10 11 10 10 12 13 12 11 14 15 14 13 13 12 12 13 11
12 14 15 14 14 15 15 15 16 18 18 18 19 15 6 5 6 7 8 9 10 8 6 4 4 2 4 5 4 4 1 2 4 3 6 7 10 14 11 7 7 10 8 5 3 2 2 2 2 1 2 1 2 5 2 6 8 7 5 4 4 4 6 6 7 5 2 3 3 4 9 13 14 13 13 14 13 14 17 16 16 16 15 14 13 13 13 12
13 16 16 14 15 15 14 15 16 18 19 19 18 10 3 4 4 7 7 6 6 3 0 1 4 2 4 5 5 4 1 2 3 3 6 9 12 12 8 7 8 8 5 2 1 1 1 2 4 2 3 7 6 7 11 14 10 8 5 5 6 6 6 8 10 7 4 5 7 10 14 13 13 14 14 14 11 11 16 17 16 16 14 14 12 12 12 14
13 15 15 12 14 16 14 14 15 17 19 20 17 7 3 5 3 2 3 1 3 4 3 5 7 4 6 6 2 3 3 3 3 3 9 12 14 11 5 4 6 4 3 4 3 1 3 3 3 5 10 12 10 12 15 11 2 1 3 5 7 7 9 10 11 8 2 2 8 12 16 15 14 15 14 15 12 9 15 18 17 16 16 14 12 13 14 15
13 14 13 13 14 15 14 13 14 16 17 18 15 6 2 2 2 3 5 5 9 11 8 11 11 9 14 10 2 3 1 2 1 3 9 11 13 10 2 2 5 1 2 4 3 1 2 5 7 12 14 9 6 9 10 6 4 5 5 7 6 6 12 11 11 11 2 2 7 8 15 16 14 15 15 16 14 14 15 14 17 20 18 15 14 17 16 12
14 14 14 15 15 14 12 12 14 14 14 16 14 8 3 2 1 3 1 4 10 10 11 14 10 10 17 14 5 2 1 3 3 1 8 9 6 5 2 4 5 3 1 3 2 0 2 5 11 15 8 1 1 3 4 6 7 7 5 5 6 5 9 9 8 9 2 2 6 8 13 13 13 18 18 19 17 14 12 10 15 20 17 17 16 14 10 8
13 13 14 15 14 11 10 12 12 12 14 14 12 6 1 1 2 2 1 2 8 6 7 9 6 6 11 11 6 5 3 6 4 3 9 9 2 3 4 5 4 2 3 5 6 5 4 6 13 13 4 2 3 3 5 2 4 6 5 4 7 5 6 7 5 6 4 3 6 9 13 11 13 16 17 17 13 11 13 12 14 17 18 20 16 9 7 8
12 12 12 13 13 10 11 13 9 10 13 10 9 6 3 3 2 2 0 2 4 6 6 6 4 5 6 5 4 8 5 5 2 3 11 12 4 3 4 5 5 3 5 9 10 9 8 5 5 5 5 8 7 2 3 3 6 7 6 4 9 10 9 9 5 7 6 5 3 6 12 9 6 8 9 8 4 6 11 11 14 17 14 13 13 11 6 5
10 10 10 11 12 10 12 12 6 9 11 5 6 8 5 4 2 2 1 2 3 6 4 3 3 3 4 3 5 7 3 3 3 3 9 11 6 4 2 2 4 5 8 8 8 9 9 4 4 4 5 8 7 6 6 6 8 7 5 10 15 13 11 11 8 7 6 5 3 5 7 6 1 1 6 4 3 5 6 8 16 13 4 3 8 9 5 4
11 10 9 10 10 10 11 6 5 10 8 3 4 9 8 5 2 1 1 2 3 5 2 1 1 2 3 3 2 4 4 1 3 0 4 5 4 4 2 1 1 4 7 5 3 4 4 3 3 5 5 6 6 6 6 8 6 7 4 11 13 10 9 9 7 4 2 4 2 3 1 7 3 3 7 5 2 8 9 11 15 7 5 5 7 7 5 6
13 13 11 10 8 8 6 3 6 9 3 1 5 8 9 7 4 2 1 3 4 2 2 1 1 2 3 0 0 4 3 3 1 2 2 2 1 2 2 3 0 1 3 2 2 3 3 0 2 4 5 6 5 6 7 10 5 6 4 6 7 7 7 5 3 3 3 4 3 3 4 6 8 4 5 3 3 9 13 13 11 6 6 9 8 8 7 7
12 13 13 12 10 8 8 7 7 5 1 3 6 7 9 8 5 2 2 3 4 2 2 1 1 2 0 1 2 3 1 2 3 1 1 2 2 2 1 6 6 4 3 4 4 4 3 4 4 6 5 4 6 6 8 12 6 6 3 5 6 5 4 4 4 3 1 4 4 3 5 3 9 5 1 1 3 8 12 11 10 8 9 9 7 7 7 6
10 11 12 12 10 8 9 9 7 5 4 5 5 8 10 7 4 3 3 2 2 2 1 0 2 1 2 2 3 3 2 2 2 2 3 2 2 3 2 6 7 5 4 5 7 5 1 4 7 8 5 6 8 5 9 13 7 4 5 6 5 4 3 4 3 2 2 4 5 5 5 3 9 5 3 2 2 7 8 7 7 8 8 8 8 7 7 6
9 9 10 10 7 6 6 8 10 10 8 7 6 7 7 4 2 2 3 4 1 1 0 1 0 2 3 3 3 3 1 2 1 2 3 1 2 5 1 2 5 3 2 1 6 6 2 0 2 5 5 6 5 2 4 8 6 4 6 4 5 4 4 3 1 3 2 6 6 9 11 4 6 4 4 3 4 6 5 4 7 8 8 7 7 6 7 8
8 7 8 8 6 5 4 4 9 9 8 7 4 3 4 2 2 3 8 2 1 2 1 1 2 2 3 2 2 1 0 2 2 2 1 1 3 4 2 0 3 3 3 3 5 4 1 1 2 4 2 4 5 3 1 1 4 4 4 3 3 3 3 4 3 3 2 8 6 8 11 7 6 6 1 4 6 5 3 3 7 9 9 9 7 6 7 6
7 7 7 6 6 7 6 3 3 4 6 6 2 2 2 2 2 7 6 3 2 2 1 1 1 2 2 1 1 2 1 1 0 2 3 2 2 2 2 4 3 1 4 2 3 4 2 5 3 3 1 4 5 2 2 3 3 4 4 3 0 3 3 2 2 1 4 7 4 4 6 5 9 7 3 8 11 8 6 4 7 9 9 10 8 8 7 5
8 8 7 7 6 8 9 8 5 5 6 6 3 3 4 3 6 4 2 1 2 1 2 1 1 2 2 1 2 2 1 2 2 1 2 2 1 3 5 4 4 2 4 2 2 4 4 4 1 0 3 4 7 5 3 2 4 5 5 5 4 2 2 4 3 2 5 6 3 1 3 3 8 6 6 12 14 9 5 6 7 7 7 8 7 8 9 6
10 9 9 8 8 8 9 10 10 9 9 9 4 3 3 8 7 2 2 5 3 2 1 2 2 1 2 2 3 3 2 2 2 3 0 2 1 2 4 4 3 2 1 1 2 2 4 7 3 5 2 3 8 7 4 5 5 5 4 4 4 5 4 4 4 4 5 3 2 1 2 3 4 3 5 10 10 6 3 4 4 4 6 6 7 8 7 6
12 11 11 11 11 10 10 12 13 13 13 9 3 2 6 9 5 2 4 4 2 3 2 1 3 1 2 3 3 3 4 3 2 4 2 2 3 3 3 4 4 4 3 2 2 2 4 8 5 1 2 3 6 3 3 5 1 2 3 3 3 5 4 3 4 4 1 1 2 2 3 5 5 6 8 8 6 4 5 5 4 5 6 5 6 7 6 6
12 11 12 12 13 13 13 14 14 16 14 7 2 5 8 7 3 3 4 2 2 2 1 3 2 1 4 2 2 2 2 2 1 2 2 3 3 4 4 4 5 8 6 4 3 2 3 6 3 3 3 2 4 2 2 1 2 1 2 3 5 4 4 2 5 1 2 3 5 4 6 6 4 8 10 5 3 1 1 4 4 4 4 4 5 5 5 6
10 9 9 10 14 15 13 14 18 20 12 4 4 7 6 5 5 4 3 1 1 3 2 2 2 2 3 2 2 2 1 1 1 2 2 2 2 4 5 3 4 8 7 3 2 3 3 4 3 2 1 1 2 2 3 1 2 3 2 4 4 1 2 1 2 1 1 5 5 5 9 8 5 8 8 8 11 7 2 4 6 6 5 5 5 5 6 7
9 7 7 10 15 16 12 14 21 18 7 3 8 10 5 3 4 3 3 2 0 1 2 4 4 2 2 3 3 1 3 2 1 2 2 2 3 4 4 2 2 3 4 1 2 2 0 2 3 1 3 2 2 3 3 3 1 3 3 2 0 2 2 1 1 1 3 6 4 3 8 7 5 8 10 13 18 14 5 3 5 8 7 7 9 9 10 10
5 3 4 6 9 13 14 19 20 11 3 4 10 9 5 4 3 3 3 2 1 1 3 5 4 2 2 3 3 2 3 4 2 2 2 3 4 2 2 1 2 1 3 2 3 2 2 1 3 1 1 3 3 1 1 2 2 0 1 2 0 2 2 2 1 0 2 6 5 5 7 6 6 8 12 15 15 14 11 7 7 9 9 9 9 10 11 10
1 0 2 2 0 10 19 20 13 5 4 6 8 6 2 2 2 1 2 2 2 1 2 4 4 3 3 3 3 2 2 4 4 3 3 2 3 2 2 2 3 1 3 5 1 1 2 1 4 1 1 4 4 3 5 5 4 2 2 2 2 1 1 2 2 2 4 7 7 7 8 6 5 6 9 13 11 10 10 10 10 10 10 10 9 9 8 8
0 1 2 3 1 14 20 13 6 4 4 5 7 7 4 3 3 2 2 2 3 2 1 3 4 4 3 3 3 2 1 3 4 4 3 3 4 4 3 3 4 4 2 4 1 2 2 2 4 4 4 5 8 9 8 9 9 6 6 5 6 6 4 5 6 5 5 6 6 8 10 6 3 4 6 7 7 9 10 10 9 9 11 10 9 9 9 8
1 2 1 2 8 20 15 5 4 3 3 4 4 4 3 3 3 3 1 1 2 2 1 1 3 3 3 4 4 3 2 3 4 4 4 5 6 5 3 1 2 4 3 2 3 3 2 2 3 8 9 8 12 11 8 10 11 8 6 6 7 7 5 7 9 6 5 7 7 9 10 4 2 4 6 5 7 8 8 8 8 7 8 9 9 10 10 10
1 2 3 2 9 17 9 4 5 4 4 3 1 2 2 1 3 3 2 0 1 2 1 1 3 4 4 5 5 4 4 4 6 7 6 4 5 3 3 4 4 4 1 1 2 2 1 2 3 6 6 6 9 8 3 2 4 4 4 4 6 5 5 7 6 3 4 6 6 8 8 3 0 3 3 8 9 8 8 8 7 5 5 6 7 8 9 9
1 3 3 3 3 4 4 5 5 5 5 3 4 6 4 2 4 5 4 2 2 2 1 2 3 4 5 4 3 5 6 5 6 8 6 3 3 2 5 5 4 3 1 1 1 2 1 1 3 4 5 6 7 6 3 3 2 0 2 3 2 2 5 6 4 3 3 5 7 9 7 3 2 2 6 10 8 7 8 7 6 6 5 5 5 6 6 7
1 1 3 5 5 2 2 2 1 4 6 6 8 9 7 5 4 5 6 4 4 3 2 3 2 1 2 1 1 2 4 4 4 4 1 1 3 2 5 6 5 3 2 1 1 1 0 2 4 5 8 8 8 7 3 2 2 1 2 4 4 4 5 5 4 5 5 4 7 9 8 7 6 7 8 9 9 7 6 6 6 6 5 5 5 5 5 5
1 0 2 4 3 1 1 0 1 2 4 5 7 8 10 10 4 2 5 5 5 5 4 5 3 1 2 3 3 5 5 5 4 3 2 3 2 1 3 4 5 2 3 4 5 2 1 2 4 6 8 8 8 8 4 3 3 4 4 5 6 6 6 5 5 6 6 6 7 9 10 10 8 10 11 7 7 6 6 7 7 6 6 6 4 4 5 5
0 1 1 1 2 2 1 1 1 2 2 1 2 3 7 10 7 3 4 3 3 3 3 5 4 4 5 4 4 5 5 5 4 4 5 5 3 2 2 1 4 3 1 1 4 3 2 2 4 8 9 8 8 9 5 3 5 6 7 8 8 9 10 9 9 8 7 8 8 9 12 13 11 10 9 5 5 4 5 6 6 6 6 6 6 7 8 7
0 0 0 1 1 1 1 1 2 3 3 3 1 2 4 5 5 3 1 1 2 1 1 2 2 4 5 1 1 2 3 4 4 4 4 3 2 2 2 1 2 4 4 2 3 3 3 3 5 6 8 6 6 8 6 6 7 7 8 10 11 12 13 14 13 11 9 10 11 12 16 19 14 6 3 4 5 4 3 3 4 4 5 6 7 8 9 9
1 0 2 2 1 0 1 2 3 4 4 3 2 3 4 4 5 3 0 1 3 2 2 4 2 1 2 2 3 2 3 4 4 2 1 2 2 1 2 2 1 3 6 4 3 0 2 3 3 2 4 6 7 10 10 10 10 11 11 11 11 14 16 16 16 15 15 16 16 16 19 18 8 1 2 2 4 4 1 1 2 2 4 4 5 6 6 7
1 0 1 2 1 0 1 1 1 2 3 3 3 4 4 5 7 4 1 2 5 3 3 5 3 0 2 3 4 5 4 3 3 2 1 1 1 1 1 1 0 3 4 2 3 3 1 3 4 3 4 7 9 11 11 10 11 12 12 12 14 16 16 16 16 15 16 17 16 15 16 11 1 2 1 1 2 3 3 3 3 2 2 3 4 5 5 6
1 1 1 2 1 2 1 0 0 1 2 3 4 4 3 4 4 2 1 1 2 1 1 2 3 3 1 1 0 2 2 5 5 4 3 2 2 0 0 1 1 4 4 0 1 3 2 2 4 4 4 7 9 11 11 8 9 11 14 16 19 18 16 14 14 13 12 12 12 12 10 4 1 1 1 1 1 3 3 4 5 4 3 4 4 5 5 5
2 1 1 2 1 1 2 1 1 2 3 2 2 2 1 0 2 2 0 2 5 5 5 5 5 4 1 2 2 2 1 2 4 4 3 4 5 4 4 5 5 4 2 1 1 2 2 3 3 3 5 8 11 9 4 4 6 11 12 14 17 17 15 14 12 10 7 4 5 7 4 2 2 2 1 2 2 3 4 5 5 5 5 5 5 5 5 5
Wind_Direction
28 30 26 28 27 29 29 27 28 22 20 14 9 6 1 360 355 354 351 352 353 352 355 353 355 358 358 360 355 344 331 313 289 260 249 265 279 257 244 258 231 196 199 196 179 161 132 122 142 127 122 90 12 347 11 6 80 65 92 129 232 200 201 188 190 198 186 251 261 261 170 204 289 297 260 272 305 286 286 274 254 271 255 238 249 260 261 233
19 20 18 20 18 21 19 19 20 15 13 7 4 359 354 352 346 346 343 342 344 343 347 346 348 349 351 353 352 346 331 315 292 262 246 242 294 286 250 237 218 193 195 194 191 170 141 156 155 111 82 66 351 357 4 333 91 97 121 163 233 203 212 199 186 193 200 230 250 261 212 216 257 261 87 246 275 312 294 276 235 260 265 256 251 245 241 215
11 10 11 12 12 14 10 9 8 5 3 357 354 348 343 340 335 335 333 333 333 334 336 336 338 341 346 346 351 347 327 318 304 248 193 119 352 318 261 219 207 190 193 198 199 187 168 170 156 114 60 66 337 15 34 316 172 163 137 204 243 215 226 234 207 206 220 234 275 280 249 224 239 212 171 213 270 289 261 264 246 244 259 260 244 223 222 209
5 3 6 5 5 6 1 360 356 354 351 347 342 336 333 329 327 325 323 324 322 324 324 327 330 332 340 342 349 342 334 340 297 191 155 91 4 360 274 202 192 186 193 194 185 188 163 140 135 89 75 110 328 8 157 234 207 178 158 209 237 195 223 242 219 218 230 228 238 273 314 281 253 173 191 174 270 277 248 247 240 242 250 255 250 210 206 203
359 359 3 1 1 357 353 352 348 349 345 341 336 332 331 326 324 320 318 315 314 314 313 316 317 321 329 334 342 345 2 12 272 187 165 328 343 347 267 194 190 187 189 185 163 156 138 127 104 55 78 145 333 29 243 228 138 177 215 232 233 166 232 246 214 219 216 182 219 264 291 278 281 160 200 174 213 255 252 243 227 235 241 245 249 207 193 201
356 357 1 359 357 350 348 348 344 345 341 338 334 333 330 324 322 317 314 310 309 308 306 306 307 310 315 321 326 336 43 9 257 224 253 300 309 302 217 194 191 188 188 175 149 137 122 102 87 92 82 29 202 198 247 242 128 235 249 254 245 197 229 248 187 204 179 163 212 221 278 296 328 282 214 178 219 246 257 256 236 240 237 237 240 189 190 207
355 357 360 357 354 346 345 344 341 341 338 336 333 332 328 324 321 314 312 308 305 304 302 303 304 304 309 319 306 325 103 233 265 265 272 281 278 270 209 198 190 191 189 169 147 135 112 102 131 148 105 357 218 211 233 243 118 242 257 258 252 214 227 246 209 194 188 223 234 232 322 291 267 282 236 190 225 251 260 260 252 257 252 239 238 213 215 216
356 357 358 355 349 342 341 339 338 338 335 334 332 331 327 323 318 312 310 305 303 304 301 302 305 307 310 313 274 331 135 250 273 274 270 266 256 243 207 193 190 194 188 182 169 153 134 137 170 153 138 238 199 188 191 155 189 221 235 249 259 231 239 260 268 243 245 249 245 306 289 271 262 267 271 243 233 249 259 265 261 264 266 248 245 241 233 228
357 356 356 352 347 340 338 336 336 334 331 331 330 329 325 321 316 310 306 302 302 301 302 305 308 311 306 309 94 322 257 260 278 268 257 251 241 223 204 194 193 193 184 190 182 163 160 172 193 184 192 206 172 186 174 180 239 216 222 257 277 274 269 278 272 245 247 247 173 185 259 268 274 262 270 255 233 246 256 272 274 264 265 250 248 249 238 236
355 354 355 349 346 340 337 335 333 330 328 328 328 327 322 318 313 307 302 298 297 296 300 301 306 312 299 319 87 275 265 263 254 237 237 233 231 212 205 203 196 195 182 180 179 171 178 191 183 163 165 154 170 191 163 178 211 190 201 273 263 272 283 260 263 253 245 256 176 192 254 268 285 72 268 253 211 245 259 274 278 263 259 252 249 252 244 240
355 356 353 348 346 341 340 337 333 331 328 329 328 325 321 317 310 303 298 293 290 290 293 292 300 303 279 157 185 252 261 249 233 230 233 235 235 218 214 213 202 198 184 172 189 192 192 181 150 119 163 176 168 182 211 199 157 136 143 295 276 293 294 235 244 261 229 258 194 187 252 279 302 142 250 258 208 239 263 274 280 265 258 259 255 256 251 244
359 355 351 347 345 343 343 338 335 333 330 332 330 326 323 317 308 301 296 292 289 286 284 285 289 283 266 182 223 247 256 250 241 237 241 242 234 221 219 216 211 209 197 187 204 205 199 172 147 142 214 163 140 190 235 206 96 66 80 309 291 332 307 253 239 255 184 218 182 158 252 286 261 235 250 263 213 219 260 271 275 268 264 265 263 262 254 250
356 351 348 345 345 345 343 338 336 333 332 334 331 328 324 316 308 302 299 293 287 283 281 282 277 250 227 258 243 250 257 254 249 247 248 245 235 226 219 211 210 215 217 213 210 205 201 187 163 173 199 148 206 205 127 60 68 286 73 314 295 339 307 269 227 18 149 194 170 151 256 266 244 251 260 270 138 225 258 262 267 271 272 270 266 267 263 258
349 347 345 344 345 344 342 340 337 334 336 337 334 330 324 316 309 305 303 295 287 281 276 274 254 195 170 259 262 263 259 255 250 246 246 241 227 213 207 200 200 203 214 215 202 194 198 193 163 143 192 157 236 272 40 12 17 290 305 240 308 310 283 291 50 114 202 220 159 162 251 255 254 264 268 282 106 213 255 265 268 272 274 274 268 266 271 265
344 343 342 340 339 340 341 340 337 337 341 341 337 332 324 316 313 314 311 298 287 270 252 220 183 152 89 276 269 271 259 255 253 248 247 237 216 197 191 186 188 190 194 193 178 171 176 172 144 138 262 277 72 359 340 345 3 12 275 267 285 204 266 303 287 189 221 259 138 171 234 260 260 265 270 294 55 192 251 266 269 271 274 275 273 265 264 268
339 336 333 332 333 337 338 338 339 341 345 345 341 334 325 321 323 328 323 309 286 201 170 171 172 150 9 278 271 274 256 247 252 250 240 228 219 202 168 159 162 162 164 162 148 146 146 136 115 154 194 295 157 118 40 2 323 325 223 245 251 237 272 314 293 240 200 201 177 210 236 270 262 262 276 299 309 265 258 269 269 269 273 272 272 266 260 268
334 328 327 328 329 332 334 340 343 343 348 351 344 337 333 336 346 352 2 70 111 122 114 143 159 139 269 260 273 280 262 241 243 242 224 216 211 189 156 131 124 129 121 113 128 126 111 98 29 7 52 4 132 106 54 316 276 276 217 231 240 245 261 299 294 298 164 170 206 235 237 252 263 277 289 293 293 288 279 275 272 270 270 267 265 266 265 264
332 328 331 334 333 331 335 344 347 347 352 356 349 341 347 7 20 53 80 102 107 104 89 96 123 104 270 255 263 272 302 232 221 207 202 187 180 179 159 128 126 121 100 71 107 111 14 29 72 29 343 299 141 116 180 237 240 241 232 243 263 249 246 255 265 290 304 225 221 253 252 254 267 276 277 276 277 282 280 278 277 274 269 265 264 265 267 268
332 332 335 340 340 338 342 350 351 351 355 1 356 349 30 20 35 85 85 95 103 105 76 195 157 143 259 263 269 271 279 169 180 171 161 151 159 162 137 117 116 112 110 89 250 183 111 60 72 111 234 233 202 169 207 232 236 233 225 231 259 266 250 244 251 260 280 284 269 263 266 266 268 270 271 271 261 262 275 278 277 276 274 269 265 263 264 263
330 333 337 342 341 342 350 354 352 356 0 3 1 2 54 15 10 30 350 332 211 237 253 221 203 217 271 277 269 231 223 192 192 167 153 151 151 140 100 88 86 78 134 156 194 205 131 155 162 193 224 229 211 198 219 241 276 204 223 242 251 265 267 260 267 267 169 264 262 254 268 272 270 270 271 273 268 254 261 271 276 278 277 274 270 265 259 255
329 335 344 346 336 335 346 351 352 360 4 7 15 34 96 56 22 318 311 293 258 246 249 237 219 235 254 255 204 159 188 243 227 138 155 158 149 143 133 108 119 166 214 151 154 50 119 182 208 221 228 232 213 209 226 256 295 259 248 269 264 251 266 268 273 276 219 207 257 248 266 272 270 273 270 268 268 258 253 261 273 275 275 277 272 264 262 266
325 332 343 339 328 326 337 351 353 359 3 14 37 68 119 140 198 262 271 300 280 249 241 247 238 247 252 255 250 164 65 280 279 137 160 153 144 179 195 114 145 194 188 134 138 100 198 213 230 233 231 43 57 138 170 222 244 253 251 275 274 261 279 277 267 286 316 212 271 273 271 270 264 264 261 258 257 261 259 243 255 269 274 272 266 267 284 314
315 321 334 335 332 331 342 354 354 359 7 23 49 74 89 5 227 227 141 280 291 265 235 242 235 238 253 269 253 187 214 244 260 265 174 148 123 194 150 132 158 151 152 189 204 206 218 234 236 237 213 172 267 90 110 226 247 233 230 264 272 266 282 272 270 322 338 246 271 292 284 272 255 253 254 257 257 262 265 249 246 255 258 262 272 290 315 319
297 304 318 330 339 347 353 352 352 4 10 34 55 46 29 345 249 187 137 246 284 281 244 216 205 211 234 263 204 175 209 228 225 242 178 154 138 162 156 156 149 151 203 207 213 223 237 237 220 216 185 198 234 218 160 257 264 233 210 227 259 259 255 254 285 338 323 284 300 314 298 282 254 255 258 271 285 257 257 258 253 250 250 267 290 299 297 291
284 290 299 311 324 340 345 342 349 7 6 45 50 15 11 348 267 169 354 321 287 289 275 198 188 213 204 161 160 170 169 205 232 228 179 166 153 143 176 169 147 200 214 205 219 245 254 234 146 148 184 186 204 232 214 213 253 265 206 214 241 257 262 264 296 342 336 305 345 8 321 297 6 308 266 292 334 266 248 245 249 254 282 293 279 286 296 279
274 276 280 289 302 324 337 334 338 354 2 58 22 358 1 353 303 224 28 10 290 279 290 202 191 179 173 123 155 158 120 243 270 134 162 179 163 131 157 185 118 214 202 186 213 248 256 249 166 168 170 155 177 239 222 189 241 286 232 214 231 249 264 271 292 325 297 264 289 63 346 286 289 180 240 256 259 262 253 245 254 281 355 306 283 298 299 278
271 268 269 272 277 300 316 302 322 341 2 11 353 356 359 356 331 303 12 360 300 232 120 302 343 128 173 200 100 137 147 273 340 73 122 161 187 102 150 213 189 226 184 142 283 248 198 82 80 137 128 134 174 237 212 170 192 268 231 192 202 224 242 238 235 238 243 284 294 149 150 276 282 228 233 227 188 256 261 260 279 314 310 288 292 298 290 287
277 271 268 266 262 268 273 274 304 329 319 333 350 354 356 350 326 355 53 315 292 108 88 295 114 101 67 5 58 99 229 311 75 303 332 103 194 83 156 223 187 202 187 147 246 264 151 172 177 145 117 157 199 216 181 160 186 244 186 138 155 188 206 162 160 207 268 337 305 210 146 244 278 263 345 62 183 249 264 269 287 297 288 282 282 283 285 284
287 281 275 272 266 261 262 261 266 269 283 320 343 344 348 334 319 52 88 262 282 82 53 55 117 6 4 27 14 41 354 355 101 274 345 89 219 79 166 214 162 189 221 172 230 261 181 205 186 149 147 207 216 207 172 167 197 215 124 94 80 86 83 99 137 141 57 314 262 201 166 231 278 265 108 78 217 237 254 269 283 285 283 285 291 296 296 299
298 292 285 280 271 252 239 243 252 257 271 289 312 343 347 328 359 65 229 242 335 340 200 104 164 306 54 66 332 342 351 315 20 358 10 59 344 31 112 199 111 142 258 288 256 254 251 37 155 163 185 200 180 141 174 176 173 134 110 65 39 44 46 58 67 90 76 279 244 187 182 192 286 275 145 176 225 207 216 284 296 289 291 294 297 294 293 308
300 296 291 287 272 243 209 230 256 251 252 264 290 1 349 351 73 209 240 238 19 295 93 80 311 24 83 118 271 312 108 292 3 67 58 63 33 31 28 251 86 70 350 321 282 278 301 128 222 244 206 138 121 93 2 112 123 111 100 71 26 342 13 30 355 57 165 260 252 189 180 174 242 262 185 248 252 208 190 304 294 285 294 298 294 284 278 302
289 289 287 285 269 239 220 223 240 217 219 221 195 63 49 1 242 223 244 3 355 277 124 186 276 83 84 84 245 247 165 240 312 113 138 127 136 180 209 198 171 339 319 260 277 319 278 215 238 293 245 144 130 141 332 11 92 113 112 120 225 308 340 340 307 102 208 255 262 187 170 191 244 251 243 266 270 252 215 228 258 264 274 283 298 307 307 338
280 281 279 273 257 237 232 230 208 187 182 167 143 62 89 226 244 209 200 283 258 271 87 120 130 114 114 23 273 239 185 205 192 138 146 120 144 247 254 223 174 247 274 227 308 324 295 273 224 189 266 180 153 177 241 237 167 158 152 156 168 190 250 255 249 260 262 270 294 176 161 251 277 271 235 244 262 267 223 206 233 249 264 284 309 312 314 346
283 280 277 269 253 241 236 229 219 204 170 145 125 67 150 232 245 125 172 230 250 318 30 121 103 84 154 206 237 203 196 249 151 130 110 82 85 269 269 255 198 170 221 272 300 223 261 287 226 173 252 187 179 195 178 143 159 179 164 146 163 181 200 227 228 247 269 291 333 281 181 210 249 266 239 232 248 279 275 246 274 284 271 289 302 297 315 344
286 280 280 272 254 240 225 219 218 200 169 140 112 181 213 238 253 254 228 228 266 289 299 108 110 61 264 241 262 218 206 248 132 120 158 165 188 210 212 230 199 156 137 212 259 174 224 270 256 186 26 138 190 222 103 105 154 221 129 118 200 200 183 231 233 209 210 311 278 213 220 225 227 267 273 255 253 274 275 275 293 289 281 298 300 304 338 345
292 285 279 266 254 242 221 212 204 185 166 134 126 213 229 237 218 216 220 181 184 191 317 335 116 173 273 269 307 302 186 216 171 126 204 196 206 213 208 225 196 178 174 188 229 213 228 267 293 23 22 154 205 269 46 118 225 137 110 188 226 184 145 240 264 200 111 252 239 211 249 273 293 282 281 300 333 18 340 303 290 278 294 318 308 320 345 345
310 300 277 255 252 243 223 208 191 178 166 145 206 221 232 231 203 201 196 130 146 134 114 281 222 194 251 257 286 300 128 223 189 161 221 233 238 204 202 248 202 190 205 201 224 235 226 269 299 84 105 222 164 74 7 307 155 121 166 229 234 169 134 188 269 333 278 250 243 234 262 286 308 284 297 327 310 300 8 350 327 328 337 340 338 350 356 8
317 311 278 257 249 238 220 197 183 174 157 169 226 234 226 215 216 195 167 142 168 145 161 233 244 229 231 243 265 229 175 210 172 161 198 227 235 178 165 233 174 188 256 217 183 273 21 296 304 128 181 256 70 76 357 330 83 149 214 254 143 203 255 277 161 252 264 263 262 243 265 281 272 274 295 299 291 295 320 356 348 350 357 359 1 9 13 22
304 315 285 265 243 226 204 183 174 169 162 199 224 234 218 217 222 190 184 168 140 175 203 232 246 259 238 206 210 219 199 191 171 198 212 224 239 176 129 226 142 29 326 82 152 282 41 15 285 159 166 323 348 101 198 296 309 280 240 309 39 180 235 267 209 171 270 274 274 257 260 259 243 261 278 280 286 306 326 354 20 19 25 24 16 16 16 18
274 347 269 338 23 194 182 172 169 178 207 211 227 230 214 239 244 244 239 207 194 215 217 227 226 231 241 213 205 236 229 192 189 208 215 228 259 260 228 186 152 224 352 51 77 296 56 283 259 230 290 316 293 217 189 218 248 244 226 263 269 225 263 282 254 218 251 265 267 264 259 246 238 254 264 274 296 334 359 32 40 24 28 32 26 23 17 16
61 88 244 335 104 170 166 165 181 202 209 225 241 242 248 265 266 292 293 191 208 244 184 190 209 220 239 255 253 237 195 211 208 206 222 237 244 250 245 182 172 196 96 68 188 199 144 223 244 256 261 259 251 235 212 217 231 236 231 225 233 240 254 274 260 221 218 241 244 258 263 249 234 258 269 290 336 17 36 57 52 23 20 21 16 18 16 18
174 166 271 335 178 170 162 174 206 188 216 227 232 237 244 264 252 245 253 187 205 248 318 206 217 218 225 247 251 226 221 235 214 211 235 235 222 232 280 343 132 137 122 144 226 215 159 156 227 254 258 259 262 258 233 222 229 241 245 228 228 229 214 238 254 242 230 237 233 249 260 246 177 255 286 345 37 50 47 58 60 36 20 16 10 10 12 15
173 254 317 346 181 175 170 210 204 196 230 238 276 257 223 244 250 232 217 187 212 232 266 248 229 233 232 232 224 211 223 226 214 224 236 236 230 247 336 0 54 68 38 280 282 292 53 122 216 257 270 275 277 282 291 207 208 233 260 239 224 232 234 239 249 267 259 246 244 256 260 262 281 269 356 48 61 59 43 46 55 44 25 20 12 9 12 12
4 289 287 296 244 203 196 208 207 214 221 234 255 245 237 223 231 243 245 217 196 205 223 234 236 240 235 223 211 217 226 230 236 238 228 222 252 340 17 19 62 75 301 258 251 289 323 212 234 279 293 292 291 294 324 22 51 146 269 265 240 294 307 298 291 294 264 234 243 260 264 262 284 330 39 45 45 50 46 38 38 36 24 14 12 12 12 10
342 294 268 287 308 330 214 208 221 224 222 231 240 242 251 246 224 232 240 235 213 193 222 260 237 224 259 292 336 271 240 232 256 266 240 233 263 347 12 16 55 109 161 89 67 260 308 258 257 268 268 269 279 278 284 342 336 282 309 327 341 340 320 314 298 272 265 252 252 264 275 282 300 325 347 10 20 29 36 29 26 29 19 9 7 3 3 9
348 316 299 305 328 12 201 168 22 258 236 231 235 236 236 244 258 209 205 236 239 205 216 248 218 161 273 258 259 269 251 223 227 259 289 277 269 308 346 15 45 110 163 79 49 72 139 264 248 249 255 259 269 279 315 2 294 285 316 321 316 310 298 292 275 261 282 300 279 268 278 287 301 308 311 345 17 360 357 15 17 15 13 8 357 350 358 5
28 222 220 321 337 326 268 311 340 297 300 284 256 247 232 238 257 255 203 229 255 217 224 240 211 208 230 227 232 250 245 230 226 240 254 252 248 292 314 71 49 27 154 87 40 87 141 247 240 248 259 264 277 291 321 336 290 286 296 291 288 293 288 275 265 268 293 297 278 276 287 288 289 296 307 346 15 351 356 9 5 3 1 356 354 356 1 359
7 213 257 333 318 271 242 302 354 328 298 295 310 313 283 250 241 250 241 284 301 309 276 266 217 214 231 215 159 259 272 276 271 260 264 280 287 311 336 59 54 34 51 21 356 95 137 246 242 253 272 281 297 303 301 292 285 278 273 273 276 277 273 268 267 271 273 268 270 283 285 282 286 303 354 14 353 339 5 6 353 354 346 348 355 355 355 350
10 347 319 1 61 264 285 317 359 347 296 284 274 265 275 269 257 254 60 334 306 315 255 259 252 174 177 144 154 232 280 284 286 302 1 340 309 303 336 339 50 45 48 27 328 217 159 249 248 252 297 302 298 293 291 291 289 282 274 269 266 262 261 264 269 269 263 262 268 275 274 276 286 29 85 22 340 320 318 312 315 329 328 332 338 338 339 334
46 348 338 35 71 258 323 326 347 338 296 277 258 258 261 263 270 281 22 280 276 268 245 259 272 105 131 144 170 206 206 181 218 250 92 24 307 25 338 292 28 1 10 28 313 300 268 282 307 355 319 288 279 278 280 284 284 283 282 276 266 263 261 263 265 265 264 266 268 268 270 273 251 119 255 311 345 317 311 302 292 284 292 305 310 319 324 318
89 21 67 65 305 230 163 39 74 200 256 231 220 255 274 264 277 303 27 337 302 329 62 29 1 10 29 27 4 219 156 129 162 187 161 180 225 128 272 268 359 341 335 48 302 317 317 300 327 342 298 271 271 273 276 289 295 285 277 269 263 262 261 259 258 258 260 265 270 272 274 272 143 166 266 258 303 315 306 294 287 269 260 279 287 299 312 310
126 340 81 117 299 256 165 139 172 191 227 227 216 257 243 146 15 2 265 77 79 81 75 57 20 9 346 322 7 109 122 149 178 188 184 203 222 219 220 236 249 258 254 222 258 253 228 257 286 285 276 275 273 274 294 349 309 280 264 253 251 254 257 257 256 258 256 245 257 268 261 176 191 215 220 238 248 262 262 263 267 259 250 255 261 274 292 295